Weather History for Lake Charles Regional, LA

Change the Weather History Date:

Sunday, March 25, 2012

  Actual Average Record
Temperature  
Mean Temperature 72 °F 63 °F  
Max Temperature 86 °F 74 °F 89 °F (1910)
Min Temperature 57 °F 53 °F 30 °F (1915)
Degree Days  
Heating Degree Days 0 4  
Month to date heating degree days 30 143  
Since 1 July heating degree days 945 1425  
Cooling Degree Days 7 2  
Month to date cooling degree days 159 37  
Year to date cooling degree days 244 60  
Growing Degree Days 22 (Base 50)    
Moisture  
Dew Point 55 °F    
Average Humidity 60    
Maximum Humidity 93    
Minimum Humidity 27    
Precipitation  
Precipitation 0.00 in 0.13 in 4.32 in (1943)
Month to date precipitation 7.19 2.96  
Year to date precipitation 24.00 11.65  
Snow  
Snow 0.00 in 0.00 in 0.00 in ()
Month to date snowfall 0.0 0.0  
Since 1 July snowfall 0.0 0.1  
Snow Depth 0.00 in    
Sea Level Pressure  
Sea Level Pressure 30.03 in    
Wind  
Wind Speed 2 mph (NNE)    
Max Wind Speed 10 mph    
Max Gust Speed 15 mph    
Visibility 8 miles    
Events Fog    
T = Trace of Precipitation, MM = Missing Value Source: NWS Daily Summary

Daily Weather History Graph

Daily Weather History Graph

Search for Another Location

Airport:

Trip Planner

Search our weather history database for the weather conditions in past years. The results will help you decide how hot, cold, wet, or windy it might be!

Date:

Astronomy

Mar. 25, 2012 Rise Set
Actual Time 7:10 AM CDT 7:27 PM CDT
Civil Twilight 6:46 AM CDT 7:51 PM CDT
Nautical Twilight 6:18 AM CDT 8:19 PM CDT
Astronomical Twilight 5:49 AM CDT 8:48 PM CDT
Moon 8:38 AM CDT (3/25) 10:26 PM CDT (3/25)
Length of Visible Light 13h 05m
Length of Day
12h 17m
Waxing Crescent, 9% of the Moon is Illuminated
Mar 25
Waxing Crescent
Mar 30
First Quarter
Apr 6
Full
Apr 13
Last Quarter
Apr 21
New

Hourly Weather History & Observations

Time (CDT) Temp. Heat Index Dew Point Humidity Pressure Visibility Wind Dir Wind Speed Gust Speed Precip Events Conditions
12:53 AM 62.1 °F - 57.9 °F 86% 30.04 in 10.0 mi Calm Calm - N/A   Clear
1:53 AM 61.0 °F - 55.9 °F 83% 30.03 in 10.0 mi Calm Calm - N/A   Clear
2:53 AM 60.1 °F - 57.0 °F 90% 30.02 in 10.0 mi Calm Calm - N/A   Clear
3:51 AM 60.8 °F - 55.4 °F 82% 29.99 in 10.0 mi Calm Calm - N/A   Partly Cloudy
3:53 AM 60.1 °F - 55.9 °F 86% 30.01 in 10.0 mi Calm Calm - N/A   Partly Cloudy
4:32 AM 60.8 °F - 55.4 °F 82% 29.99 in 10.0 mi Calm Calm - N/A   Mostly Cloudy
4:53 AM 59.0 °F - 55.9 °F 90% 30.02 in 2.5 mi Calm Calm - N/A   Mostly Cloudy
4:58 AM 59.0 °F - 55.4 °F 88% 29.99 in 1.0 mi Calm Calm - N/A   Mist
5:05 AM 59.0 °F - 55.4 °F 88% 29.99 in 0.5 mi Calm Calm - N/A Fog Fog
5:14 AM 60.8 °F - 55.4 °F 82% 30.00 in 2.5 mi Calm Calm - N/A   Mostly Cloudy
5:17 AM 60.8 °F - 55.4 °F 82% 30.00 in 3.0 mi NE 3.5 mph - N/A   Scattered Clouds
5:53 AM 59.0 °F - 55.0 °F 87% 30.04 in 10.0 mi Calm Calm - N/A   Clear
6:53 AM 57.9 °F - 55.0 °F 90% 30.05 in 5.0 mi Calm Calm - N/A   Clear
7:53 AM 61.0 °F - 57.0 °F 87% 30.06 in 10.0 mi Calm Calm - N/A   Clear
8:53 AM 70.0 °F - 61.0 °F 73% 30.08 in 10.0 mi Calm Calm - N/A   Clear
9:53 AM 75.0 °F - 57.9 °F 55% 30.09 in 10.0 mi ENE 4.6 mph - N/A   Clear
10:53 AM 79.0 °F - 55.0 °F 44% 30.09 in 10.0 mi ENE 4.6 mph - N/A   Clear
11:53 AM 81.0 °F - 50.0 °F 34% 30.08 in 10.0 mi Calm Calm - N/A   Clear
12:53 PM 82.9 °F - 48.0 °F 29% 30.06 in 10.0 mi Variable 3.5 mph - N/A   Clear
1:53 PM 84.9 °F - 46.9 °F 27% 30.04 in 10.0 mi North 10.4 mph - N/A   Clear
2:53 PM 86.0 °F - 50.0 °F 29% 30.02 in 10.0 mi North 11.5 mph - N/A   Clear
3:53 PM 84.0 °F - 48.9 °F 29% 30.01 in 10.0 mi Variable 3.5 mph - N/A   Clear
4:53 PM 84.9 °F - 51.1 °F 31% 30.00 in 10.0 mi WSW 4.6 mph - N/A   Clear
5:53 PM 86.0 °F - 50.0 °F 29% 29.99 in 10.0 mi NNW 3.5 mph - N/A   Clear
6:53 PM 82.0 °F 81.6 °F 55.9 °F 41% 29.99 in 10.0 mi Calm Calm - N/A   Clear
7:53 PM 72.0 °F - 57.9 °F 61% 30.00 in 10.0 mi Calm Calm - N/A   Clear
8:53 PM 73.0 °F - 63.0 °F 71% 30.02 in 10.0 mi SSW 4.6 mph - N/A   Clear
9:53 PM 68.0 °F - 63.0 °F 84% 30.04 in 10.0 mi Calm Calm - N/A   Clear
10:53 PM 66.9 °F - 63.0 °F 87% 30.05 in 9.0 mi Calm Calm - N/A   Clear
11:53 PM 66.0 °F - 61.0 °F 84% 30.05 in 9.0 mi Calm Calm - N/A   Clear